QPF
0.01 0.02 0.04 0.05 0.05 0.05 0.03 0.03 0.03 0.02 0.02 0.02 0.02 0.01 0.01 0.01 0.01 0.00 0.00 0.01 0.00 0.00 0.01 0.01 0.01 0.01 0.01 0.01 0.01 0.01 0.00 0.01 0.03 0.06 0.04 0.03 0.02 0.01 0.01 0.00 0.00 0.01 0.01
0.00 0.01 0.01 0.02 0.03 0.04 0.04 0.04 0.05 0.05 0.04 0.02 0.02 0.02 0.02 0.02 0.01 0.01 0.00 0.00 0.00 0.00 0.00 0.01 0.01 0.01 0.01 0.01 0.01 0.01 0.01 0.02 0.02 0.03 0.03 0.02 0.02 0.02 0.01 0.00 0.01 0.01 0.01
0.01 0.01 0.01 0.01 0.01 0.01 0.01 0.02 0.03 0.04 0.06 0.05 0.03 0.03 0.03 0.01 0.01 0.01 0.01 0.01 0.00 0.00 0.00 0.00 0.01 0.01 0.01 0.01 0.01 0.01 0.02 0.02 0.01 0.01 0.03 0.04 0.03 0.02 0.02 0.01 0.01 0.01 0.01
0.01 0.00 0.01 0.01 0.01 0.01 0.01 0.01 0.01 0.02 0.03 0.05 0.05 0.06 0.06 0.04 0.03 0.02 0.02 0.01 0.01 0.01 0.00 0.00 0.01 0.01 0.01 0.02 0.01 0.01 0.01 0.02 0.02 0.01 0.01 0.02 0.02 0.02 0.02 0.01 0.01 0.01 0.01
0.01 0.00 0.00 0.00 0.01 0.01 0.01 0.01 0.01 0.01 0.01 0.02 0.03 0.04 0.05 0.06 0.06 0.05 0.04 0.03 0.02 0.01 0.01 0.01 0.01 0.01 0.01 0.02 0.01 0.01 0.01 0.02 0.02 0.02 0.01 0.01 0.01 0.01 0.01 0.01 0.01 0.01 0.01
0.00 0.01 0.00 0.00 0.01 0.00 0.01 0.01 0.01 0.01 0.01 0.01 0.02 0.02 0.02 0.02 0.05 0.07 0.05 0.03 0.02 0.02 0.02 0.01 0.01 0.01 0.01 0.01 0.01 0.02 0.02 0.02 0.02 0.02 0.02 0.02 0.02 0.01 0.01 0.02 0.01 0.01 0.01
0.01 0.01 0.01 0.01 0.01 0.01 0.01 0.01 0.01 0.01 0.00 0.01 0.02 0.02 0.01 0.01 0.02 0.04 0.04 0.03 0.03 0.02 0.03 0.03 0.02 0.02 0.01 0.01 0.02 0.02 0.03 0.04 0.04 0.04 0.03 0.02 0.02 0.02 0.02 0.02 0.02 0.01 0.01
0.01 0.01 0.01 0.01 0.02 0.01 0.01 0.01 0.01 0.01 0.01 0.00 0.01 0.02 0.02 0.02 0.02 0.03 0.04 0.03 0.03 0.03 0.03 0.02 0.02 0.02 0.02 0.02 0.01 0.02 0.02 0.03 0.03 0.04 0.04 0.04 0.03 0.02 0.02 0.02 0.02 0.02 0.01
0.02 0.01 0.01 0.01 0.01 0.01 0.01 0.01 0.01 0.01 0.01 0.01 0.01 0.02 0.02 0.02 0.02 0.02 0.02 0.03 0.03 0.02 0.02 0.02 0.02 0.02 0.01 0.02 0.02 0.02 0.02 0.02 0.02 0.01 0.01 0.02 0.02 0.02 0.02 0.02 0.02 0.03 0.03
0.02 0.02 0.01 0.01 0.01 0.01 0.01 0.00 0.01 0.01 0.01 0.01 0.01 0.02 0.03 0.02 0.03 0.03 0.03 0.04 0.05 0.05 0.04 0.04 0.03 0.03 0.02 0.02 0.02 0.02 0.01 0.02 0.03 0.02 0.01 0.01 0.01 0.01 0.01 0.01 0.02 0.02 0.02
0.01 0.02 0.01 0.01 0.01 0.01 0.01 0.01 0.01 0.01 0.01 0.01 0.01 0.01 0.02 0.03 0.04 0.03 0.03 0.03 0.04 0.04 0.05 0.05 0.04 0.03 0.03 0.03 0.03 0.02 0.02 0.01 0.02 0.02 0.01 0.01 0.01 0.01 0.01 0.01 0.02 0.02 0.03
0.01 0.02 0.02 0.01 0.00 0.00 0.01 0.01 0.01 0.01 0.01 0.01 0.01 0.01 0.01 0.02 0.03 0.03 0.03 0.03 0.03 0.03 0.03 0.03 0.03 0.03 0.03 0.03 0.03 0.03 0.02 0.02 0.02 0.02 0.01 0.01 0.01 0.02 0.01 0.01 0.01 0.01 0.02
0.01 0.01 0.03 0.02 0.01 0.00 0.00 0.01 0.01 0.01 0.01 0.01 0.01 0.01 0.01 0.01 0.01 0.01 0.02 0.02 0.02 0.01 0.01 0.02 0.02 0.02 0.03 0.03 0.02 0.02 0.02 0.02 0.01 0.01 0.01 0.01 0.01 0.01 0.01 0.01 0.01 0.01 0.02
0.01 0.01 0.02 0.03 0.02 0.01 0.00 0.00 0.01 0.01 0.01 0.01 0.01 0.00 0.01 0.01 0.01 0.01 0.01 0.01 0.01 0.01 0.01 0.01 0.01 0.01 0.02 0.02 0.02 0.02 0.02 0.02 0.01 0.01 0.01 0.01 0.01 0.01 0.01 0.01 0.01 0.01 0.01
0.00 0.01 0.01 0.02 0.01 0.01 0.01 0.01 0.00 0.01 0.01 0.01 0.01 0.00 0.01 0.01 0.01 0.01 0.02 0.02 0.01 0.01 0.01 0.01 0.01 0.01 0.02 0.02 0.03 0.02 0.02 0.02 0.01 0.01 0.01 0.01 0.01 0.01 0.01 0.01 0.01 0.01 0.01
0.00 0.00 0.01 0.01 0.01 0.00 0.01 0.01 0.01 0.01 0.01 0.01 0.01 0.01 0.01 0.01 0.01 0.01 0.02 0.02 0.02 0.02 0.01 0.01 0.01 0.01 0.01 0.02 0.02 0.02 0.02 0.02 0.01 0.01 0.01 0.01 0.01 0.02 0.01 0.01 0.01 0.01 0.01
0.00 0.00 0.00 0.01 0.00 0.00 0.00 0.01 0.01 0.01 0.01 0.01 0.01 0.01 0.00 0.00 0.01 0.01 0.01 0.01 0.02 0.02 0.02 0.03 0.02 0.02 0.02 0.02 0.02 0.02 0.02 0.02 0.01 0.01 0.01 0.01 0.01 0.01 0.01 0.01 0.00 0.00 0.01
0.00 0.00 0.00 0.00 0.00 0.00 0.00 0.00 0.00 0.00 0.01 0.00 0.00 0.01 0.01 0.01 0.01 0.01 0.01 0.02 0.02 0.03 0.03 0.03 0.03 0.03 0.03 0.04 0.04 0.04 0.04 0.03 0.02 0.01 0.01 0.01 0.01 0.02 0.02 0.01 0.01 0.01 0.01
0.00 0.00 0.01 0.01 0.00 0.00 0.00 0.00 0.00 0.00 0.00 0.00 0.00 0.00 0.00 0.01 0.01 0.01 0.01 0.02 0.03 0.04 0.05 0.04 0.03 0.03 0.04 0.05 0.05 0.04 0.04 0.04 0.04 0.03 0.02 0.02 0.02 0.02 0.02 0.01 0.01 0.01 0.01
0.01 0.01 0.02 0.01 0.00 0.00 0.00 0.00 0.00 0.00 0.00 0.00 0.00 0.00 0.01 0.01 0.01 0.02 0.02 0.03 0.03 0.03 0.04 0.04 0.03 0.03 0.03 0.04 0.03 0.03 0.03 0.03 0.03 0.03 0.03 0.03 0.03 0.03 0.02 0.02 0.01 0.01 0.01
0.01 0.01 0.01 0.01 0.00 0.00 0.00 0.00 0.00 0.01 0.00 0.00 0.00 0.00 0.01 0.02 0.03 0.03 0.03 0.03 0.04 0.03 0.03 0.02 0.03 0.04 0.03 0.03 0.02 0.02 0.01 0.02 0.02 0.02 0.02 0.01 0.01 0.01 0.01 0.01 0.01 0.01 0.01
0.01 0.00 0.00 0.00 0.00 0.00 0.00 0.00 0.01 0.01 0.01 0.00 0.00 0.00 0.01 0.02 0.04 0.06 0.06 0.05 0.04 0.04 0.03 0.02 0.02 0.04 0.04 0.04 0.02 0.02 0.01 0.01 0.01 0.01 0.01 0.01 0.01 0.01 0.01 0.01 0.01 0.01 0.01
0.00 0.00 0.00 0.00 0.00 0.00 0.00 0.00 0.01 0.01 0.01 0.01 0.01 0.00 0.00 0.00 0.01 0.03 0.04 0.03 0.02 0.02 0.02 0.01 0.01 0.02 0.04 0.05 0.05 0.02 0.01 0.01 0.01 0.01 0.01 0.01 0.01 0.01 0.01 0.01 0.02 0.02 0.01
0.00 0.00 0.00 0.00 0.00 0.00 0.00 0.00 0.00 0.00 0.00 0.01 0.01 0.01 0.01 0.00 0.00 0.01 0.01 0.01 0.01 0.01 0.02 0.02 0.02 0.02 0.02 0.04 0.06 0.06 0.03 0.02 0.01 0.01 0.01 0.01 0.01 0.01 0.01 0.01 0.01 0.01 0.01
0.00 0.00 0.00 0.00 0.00 0.00 0.00 0.00 0.00 0.00 0.01 0.00 0.01 0.01 0.01 0.01 0.01 0.01 0.01 0.01 0.01 0.01 0.02 0.03 0.03 0.02 0.02 0.03 0.05 0.06 0.06 0.04 0.02 0.02 0.02 0.02 0.02 0.03 0.02 0.02 0.01 0.01 0.01
0.00 0.00 0.00 0.00 0.00 0.00 0.00 0.00 0.00 0.00 0.00 0.01 0.00 0.00 0.00 0.01 0.01 0.02 0.01 0.01 0.01 0.01 0.01 0.01 0.02 0.02 0.02 0.03 0.04 0.04 0.05 0.05 0.04 0.02 0.01 0.01 0.01 0.01 0.01 0.01 0.01 0.01 0.01
MSLP
1016.69 1016.68 1016.60 1016.46 1016.30 1016.14 1016.03 1015.98 1016.01 1016.12 1016.29 1016.49 1016.68 1016.86 1016.99 1017.09 1017.17 1017.25 1017.35 1017.50 1017.70 1017.95 1018.25 1018.56 1018.88 1019.17 1019.42 1019.62 1019.76 1019.87 1019.95 1020.02 1020.10 1020.20 1020.31 1020.43 1020.56 1020.65 1020.70 1020.69 1020.61 1020.45 1020.23
1016.09 1016.17 1016.20 1016.18 1016.14 1016.10 1016.08 1016.10 1016.19 1016.34 1016.53 1016.74 1016.94 1017.11 1017.24 1017.34 1017.42 1017.51 1017.61 1017.76 1017.97 1018.24 1018.54 1018.86 1019.18 1019.47 1019.70 1019.88 1020.01 1020.09 1020.15 1020.20 1020.27 1020.36 1020.48 1020.63 1020.77 1020.90 1021.00 1021.03 1021.00 1020.89 1020.73
1015.54 1015.73 1015.89 1016.00 1016.07 1016.13 1016.19 1016.28 1016.40 1016.57 1016.76 1016.96 1017.16 1017.33 1017.46 1017.57 1017.65 1017.75 1017.87 1018.03 1018.25 1018.53 1018.84 1019.16 1019.48 1019.75 1019.96 1020.11 1020.20 1020.25 1020.27 1020.29 1020.33 1020.41 1020.53 1020.69 1020.86 1021.02 1021.16 1021.24 1021.26 1021.22 1021.12
1015.09 1015.40 1015.68 1015.90 1016.08 1016.21 1016.33 1016.45 1016.59 1016.75 1016.94 1017.13 1017.31 1017.48 1017.61 1017.73 1017.83 1017.95 1018.09 1018.28 1018.52 1018.81 1019.13 1019.45 1019.76 1020.01 1020.20 1020.31 1020.36 1020.36 1020.34 1020.32 1020.33 1020.40 1020.51 1020.67 1020.85 1021.05 1021.22 1021.36 1021.43 1021.45 1021.40
1014.75 1015.16 1015.54 1015.87 1016.12 1016.31 1016.46 1016.58 1016.71 1016.86 1017.02 1017.20 1017.37 1017.54 1017.69 1017.83 1017.96 1018.10 1018.28 1018.49 1018.76 1019.06 1019.39 1019.71 1020.00 1020.24 1020.40 1020.49 1020.50 1020.47 1020.41 1020.35 1020.34 1020.37 1020.47 1020.63 1020.82 1021.03 1021.24 1021.40 1021.52 1021.59 1021.60
1014.49 1014.99 1015.46 1015.85 1016.15 1016.37 1016.52 1016.64 1016.75 1016.87 1017.01 1017.18 1017.35 1017.53 1017.70 1017.86 1018.03 1018.21 1018.41 1018.66 1018.94 1019.25 1019.58 1019.91 1020.19 1020.42 1020.57 1020.64 1020.63 1020.58 1020.49 1020.42 1020.38 1020.40 1020.48 1020.62 1020.81 1021.03 1021.24 1021.42 1021.56 1021.66 1021.70
1014.30 1014.87 1015.39 1015.82 1016.14 1016.37 1016.51 1016.61 1016.70 1016.80 1016.93 1017.09 1017.28 1017.47 1017.67 1017.87 1018.07 1018.28 1018.51 1018.76 1019.05 1019.36 1019.69 1020.00 1020.29 1020.52 1020.67 1020.74 1020.74 1020.68 1020.60 1020.52 1020.48 1020.48 1020.55 1020.68 1020.85 1021.06 1021.26 1021.44 1021.58 1021.68 1021.73
1014.15 1014.76 1015.30 1015.75 1016.08 1016.30 1016.43 1016.52 1016.60 1016.69 1016.83 1017.00 1017.20 1017.43 1017.66 1017.89 1018.11 1018.33 1018.56 1018.81 1019.08 1019.38 1019.69 1020.00 1020.28 1020.51 1020.68 1020.78 1020.81 1020.78 1020.72 1020.67 1020.63 1020.64 1020.69 1020.81 1020.96 1021.13 1021.31 1021.47 1021.59 1021.67 1021.71
1014.02 1014.63 1015.18 1015.63 1015.96 1016.17 1016.30 1016.39 1016.47 1016.58 1016.74 1016.94 1017.18 1017.44 1017.70 1017.95 1018.17 1018.39 1018.60 1018.82 1019.06 1019.32 1019.60 1019.89 1020.16 1020.41 1020.60 1020.74 1020.82 1020.84 1020.84 1020.82 1020.80 1020.82 1020.88 1020.98 1021.10 1021.24 1021.39 1021.51 1021.60 1021.65 1021.67
1013.88 1014.47 1015.01 1015.45 1015.77 1015.99 1016.14 1016.24 1016.36 1016.51 1016.71 1016.95 1017.23 1017.52 1017.80 1018.05 1018.27 1018.46 1018.63 1018.80 1018.99 1019.20 1019.44 1019.70 1019.97 1020.23 1020.46 1020.64 1020.78 1020.86 1020.91 1020.94 1020.97 1021.01 1021.07 1021.15 1021.26 1021.37 1021.47 1021.56 1021.61 1021.63 1021.62
1013.71 1014.28 1014.79 1015.21 1015.54 1015.77 1015.94 1016.09 1016.26 1016.46 1016.72 1017.01 1017.33 1017.65 1017.94 1018.19 1018.39 1018.54 1018.66 1018.78 1018.90 1019.06 1019.26 1019.49 1019.75 1020.02 1020.27 1020.50 1020.69 1020.83 1020.94 1021.02 1021.08 1021.14 1021.21 1021.29 1021.38 1021.47 1021.54 1021.60 1021.63 1021.62 1021.59
1013.50 1014.03 1014.51 1014.92 1015.25 1015.50 1015.72 1015.92 1016.15 1016.42 1016.73 1017.08 1017.43 1017.78 1018.08 1018.32 1018.49 1018.61 1018.69 1018.76 1018.84 1018.95 1019.10 1019.31 1019.56 1019.83 1020.10 1020.36 1020.58 1020.77 1020.92 1021.03 1021.13 1021.21 1021.29 1021.37 1021.45 1021.52 1021.58 1021.62 1021.63 1021.61 1021.57
1013.24 1013.72 1014.17 1014.56 1014.89 1015.17 1015.43 1015.69 1015.98 1016.31 1016.68 1017.08 1017.47 1017.83 1018.14 1018.38 1018.54 1018.64 1018.70 1018.74 1018.79 1018.87 1019.01 1019.20 1019.44 1019.70 1019.97 1020.24 1020.48 1020.68 1020.85 1020.99 1021.10 1021.19 1021.28 1021.36 1021.44 1021.51 1021.56 1021.60 1021.61 1021.60 1021.56
1012.92 1013.35 1013.76 1014.14 1014.47 1014.77 1015.06 1015.37 1015.72 1016.10 1016.52 1016.95 1017.37 1017.75 1018.08 1018.32 1018.49 1018.60 1018.66 1018.70 1018.76 1018.85 1018.98 1019.17 1019.40 1019.65 1019.91 1020.16 1020.39 1020.59 1020.75 1020.88 1020.99 1021.09 1021.18 1021.26 1021.35 1021.43 1021.49 1021.54 1021.56 1021.57 1021.54
1012.54 1012.92 1013.29 1013.64 1013.96 1014.27 1014.60 1014.94 1015.33 1015.75 1016.20 1016.66 1017.10 1017.50 1017.84 1018.11 1018.31 1018.45 1018.55 1018.64 1018.73 1018.85 1019.00 1019.20 1019.42 1019.66 1019.90 1020.12 1020.32 1020.48 1020.62 1020.73 1020.83 1020.92 1021.01 1021.10 1021.19 1021.28 1021.36 1021.43 1021.47 1021.48 1021.48
1012.10 1012.43 1012.76 1013.07 1013.38 1013.69 1014.03 1014.40 1014.80 1015.25 1015.72 1016.19 1016.65 1017.07 1017.44 1017.75 1017.99 1018.19 1018.36 1018.51 1018.66 1018.83 1019.03 1019.24 1019.46 1019.68 1019.89 1020.08 1020.23 1020.35 1020.45 1020.53 1020.61 1020.69 1020.78 1020.88 1020.98 1021.09 1021.18 1021.26 1021.31 1021.35 1021.35
1011.60 1011.89 1012.17 1012.45 1012.74 1013.04 1013.38 1013.76 1014.17 1014.63 1015.10 1015.58 1016.05 1016.49 1016.89 1017.24 1017.55 1017.81 1018.06 1018.29 1018.52 1018.75 1018.99 1019.22 1019.45 1019.65 1019.83 1019.97 1020.08 1020.15 1020.22 1020.28 1020.34 1020.42 1020.51 1020.62 1020.74 1020.86 1020.96 1021.05 1021.11 1021.14 1021.15
1011.07 1011.31 1011.55 1011.80 1012.07 1012.36 1012.69 1013.07 1013.48 1013.93 1014.41 1014.89 1015.37 1015.82 1016.25 1016.64 1017.00 1017.34 1017.66 1017.96 1018.26 1018.55 1018.83 1019.08 1019.31 1019.49 1019.64 1019.75 1019.82 1019.87 1019.91 1019.96 1020.02 1020.11 1020.22 1020.34 1020.48 1020.60 1020.72 1020.80 1020.85 1020.87 1020.87
1010.51 1010.72 1010.92 1011.14 1011.39 1011.67 1012.00 1012.37 1012.78 1013.23 1013.70 1014.18 1014.66 1015.12 1015.57 1016.00 1016.40 1016.79 1017.16 1017.53 1017.88 1018.20 1018.51 1018.77 1019.00 1019.17 1019.30 1019.38 1019.44 1019.48 1019.52 1019.58 1019.66 1019.77 1019.91 1020.05 1020.20 1020.34 1020.44 1020.52 1020.55 1020.55 1020.53
1009.96 1010.13 1010.31 1010.51 1010.74 1011.01 1011.33 1011.70 1012.11 1012.55 1013.01 1013.49 1013.97 1014.44 1014.89 1015.34 1015.77 1016.19 1016.60 1016.99 1017.36 1017.71 1018.02 1018.29 1018.50 1018.67 1018.79 1018.87 1018.93 1018.99 1019.06 1019.14 1019.26 1019.41 1019.58 1019.75 1019.92 1020.06 1020.16 1020.22 1020.23 1020.21 1020.17
1009.44 1009.59 1009.74 1009.92 1010.14 1010.40 1010.71 1011.07 1011.47 1011.91 1012.37 1012.84 1013.31 1013.78 1014.24 1014.69 1015.13 1015.56 1015.97 1016.37 1016.75 1017.09 1017.40 1017.65 1017.87 1018.03 1018.16 1018.25 1018.34 1018.43 1018.54 1018.67 1018.84 1019.02 1019.23 1019.43 1019.61 1019.75 1019.85 1019.90 1019.90 1019.87 1019.82
1009.00 1009.12 1009.25 1009.40 1009.60 1009.85 1010.14 1010.49 1010.88 1011.31 1011.76 1012.22 1012.69 1013.15 1013.60 1014.05 1014.48 1014.90 1015.31 1015.69 1016.05 1016.39 1016.68 1016.93 1017.14 1017.31 1017.45 1017.58 1017.70 1017.84 1018.00 1018.18 1018.39 1018.62 1018.85 1019.07 1019.26 1019.41 1019.51 1019.56 1019.56 1019.53 1019.49
1008.67 1008.76 1008.85 1008.98 1009.15 1009.37 1009.64 1009.96 1010.32 1010.73 1011.16 1011.61 1012.07 1012.52 1012.96 1013.40 1013.82 1014.22 1014.61 1014.98 1015.32 1015.64 1015.92 1016.16 1016.38 1016.57 1016.74 1016.90 1017.07 1017.25 1017.46 1017.68 1017.92 1018.18 1018.43 1018.66 1018.86 1019.01 1019.12 1019.18 1019.20 1019.19 1019.19
1008.49 1008.54 1008.60 1008.68 1008.80 1008.97 1009.20 1009.47 1009.80 1010.17 1010.57 1011.00 1011.43 1011.86 1012.29 1012.71 1013.12 1013.51 1013.88 1014.24 1014.57 1014.87 1015.15 1015.40 1015.64 1015.85 1016.05 1016.26 1016.47 1016.69 1016.92 1017.17 1017.43 1017.69 1017.94 1018.17 1018.37 1018.53 1018.65 1018.74 1018.80 1018.85 1018.90
1008.48 1008.48 1008.49 1008.52 1008.58 1008.69 1008.85 1009.06 1009.32 1009.64 1009.99 1010.37 1010.77 1011.18 1011.59 1011.99 1012.38 1012.76 1013.12 1013.47 1013.80 1014.10 1014.39 1014.66 1014.92 1015.16 1015.40 1015.64 1015.88 1016.13 1016.38 1016.63 1016.88 1017.13 1017.36 1017.58 1017.77 1017.94 1018.08 1018.21 1018.33 1018.46 1018.61
1008.65 1008.61 1008.56 1008.53 1008.52 1008.55 1008.62 1008.75 1008.93 1009.16 1009.44 1009.76 1010.11 1010.48 1010.85 1011.23 1011.60 1011.96 1012.32 1012.66 1012.99 1013.31 1013.62 1013.91 1014.20 1014.47 1014.74 1015.01 1015.27 1015.52 1015.77 1016.01 1016.24 1016.45 1016.65 1016.85 1017.03 1017.21 1017.39 1017.58 1017.78 1018.01 1018.26
Thickness
5723 5723 5722 5721 5720 5719 5718 5716 5714 5713 5710 5708 5706 5704 5703 5703 5702 5701 5700 5700 5700 5699 5698 5697 5696 5695 5694 5692 5692 5690 5688 5687 5687 5685 5682 5681 5682 5681 5679 5679 5680 5679 5679
5722 5720 5720 5719 5717 5716 5716 5714 5712 5710 5708 5705 5704 5703 5701 5700 5700 5698 5697 5697 5696 5695 5695 5694 5694 5692 5690 5688 5687 5686 5685 5684 5684 5683 5681 5679 5677 5675 5675 5675 5674 5675 5675
5721 5720 5718 5717 5716 5714 5713 5712 5710 5708 5705 5703 5701 5699 5697 5696 5695 5694 5694 5693 5692 5692 5691 5691 5690 5689 5688 5686 5684 5683 5681 5680 5681 5682 5679 5676 5674 5672 5671 5671 5670 5669 5669
5721 5720 5717 5715 5714 5713 5712 5710 5708 5707 5704 5701 5698 5697 5694 5692 5692 5693 5692 5691 5689 5689 5688 5688 5687 5686 5685 5683 5682 5681 5681 5678 5677 5677 5676 5677 5675 5671 5668 5667 5666 5665 5664
5722 5719 5717 5715 5714 5712 5710 5709 5707 5705 5702 5699 5696 5694 5693 5692 5691 5690 5689 5689 5687 5686 5685 5684 5683 5683 5682 5681 5679 5678 5678 5677 5675 5674 5673 5671 5670 5670 5667 5663 5661 5661 5660
5721 5719 5718 5715 5712 5710 5707 5705 5703 5701 5700 5697 5696 5693 5691 5689 5687 5686 5686 5685 5685 5684 5683 5681 5681 5681 5680 5679 5677 5676 5675 5674 5673 5672 5671 5668 5667 5665 5664 5661 5658 5657 5656
5720 5717 5714 5711 5709 5706 5704 5702 5700 5698 5697 5695 5694 5693 5690 5688 5686 5684 5684 5683 5682 5681 5681 5679 5679 5678 5677 5676 5675 5674 5672 5671 5669 5668 5668 5667 5665 5664 5662 5659 5657 5654 5652
5717 5714 5713 5710 5707 5704 5701 5700 5698 5696 5694 5692 5692 5691 5689 5686 5685 5683 5683 5682 5681 5680 5678 5677 5676 5675 5673 5672 5671 5670 5669 5668 5667 5665 5664 5663 5662 5660 5659 5657 5654 5651 5649
5713 5712 5710 5708 5705 5702 5700 5697 5695 5693 5692 5690 5689 5687 5686 5683 5682 5681 5680 5679 5678 5676 5675 5674 5673 5671 5670 5669 5668 5666 5665 5664 5663 5662 5661 5659 5658 5657 5656 5654 5653 5651 5647
5710 5708 5707 5705 5703 5701 5698 5696 5693 5691 5689 5687 5685 5683 5681 5680 5678 5677 5676 5675 5674 5673 5672 5671 5670 5668 5667 5665 5663 5662 5661 5660 5658 5657 5656 5655 5654 5653 5651 5650 5649 5649 5648
5706 5705 5703 5702 5700 5697 5695 5691 5689 5688 5686 5684 5682 5680 5678 5676 5675 5674 5673 5671 5670 5669 5668 5667 5666 5665 5664 5662 5660 5659 5657 5656 5656 5654 5653 5651 5650 5648 5647 5646 5645 5644 5643
5702 5701 5699 5696 5694 5692 5690 5688 5686 5684 5682 5680 5679 5677 5675 5672 5670 5669 5669 5668 5667 5666 5665 5664 5663 5663 5661 5660 5658 5656 5654 5653 5652 5651 5649 5647 5645 5644 5643 5641 5640 5639 5638
5697 5696 5693 5691 5688 5687 5685 5684 5682 5680 5678 5676 5674 5672 5671 5669 5667 5665 5664 5664 5663 5663 5662 5661 5660 5659 5658 5656 5654 5653 5652 5650 5649 5648 5646 5644 5642 5640 5638 5636 5636 5635 5633
5692 5690 5687 5686 5684 5683 5681 5679 5677 5675 5673 5671 5669 5667 5666 5664 5663 5661 5660 5660 5660 5660 5660 5659 5657 5656 5655 5654 5652 5650 5649 5647 5646 5644 5642 5641 5639 5637 5636 5633 5632 5630 5628
5686 5685 5683 5682 5679 5678 5676 5674 5673 5671 5669 5666 5664 5662 5661 5660 5658 5657 5657 5656 5656 5656 5656 5655 5654 5653 5651 5651 5649 5647 5645 5644 5642 5640 5638 5636 5634 5631 5630 5629 5628 5626 5624
5681 5681 5679 5677 5675 5674 5671 5669 5668 5667 5665 5663 5660 5658 5656 5655 5653 5653 5653 5652 5651 5651 5651 5650 5650 5648 5647 5644 5641 5641 5640 5639 5637 5635 5633 5631 5627 5624 5621 5620 5619 5619 5620
5676 5674 5674 5673 5672 5670 5668 5665 5664 5663 5660 5658 5655 5653 5651 5649 5648 5648 5648 5646 5646 5646 5645 5645 5644 5643 5641 5638 5636 5634 5635 5634 5633 5631 5629 5626 5624 5620 5620 5616 5613 5612 5611
5670 5669 5669 5668 5668 5666 5664 5662 5660 5658 5655 5653 5651 5648 5646 5645 5643 5643 5643 5642 5642 5641 5640 5640 5639 5638 5636 5632 5631 5628 5629 5630 5628 5626 5624 5622 5620 5617 5615 5614 5613 5612 5609
5664 5663 5663 5662 5661 5660 5658 5656 5654 5652 5650 5647 5646 5644 5642 5640 5638 5637 5637 5637 5637 5636 5635 5635 5634 5632 5631 5627 5625 5623 5624 5624 5623 5621 5619 5617 5615 5611 5607 5608 5607 5606 5605
5656 5655 5654 5654 5653 5653 5651 5649 5648 5646 5644 5643 5641 5640 5638 5636 5634 5633 5632 5632 5632 5631 5630 5630 5629 5628 5628 5623 5620 5617 5620 5619 5618 5616 5613 5609 5608 5605 5602 5602 5602 5601 5600
5647 5646 5646 5645 5645 5645 5643 5641 5641 5640 5639 5638 5636 5634 5633 5631 5630 5628 5627 5626 5626 5625 5624 5624 5623 5623 5622 5618 5615 5612 5614 5613 5612 5611 5609 5606 5601 5598 5596 5595 5597 5596 5594
5637 5637 5636 5636 5637 5636 5635 5633 5632 5633 5631 5630 5628 5627 5626 5625 5624 5622 5620 5620 5619 5618 5618 5618 5617 5616 5615 5612 5609 5607 5605 5605 5606 5605 5604 5601 5596 5593 5591 5590 5589 5586 5584
5628 5628 5627 5627 5627 5627 5626 5625 5624 5624 5623 5621 5620 5619 5619 5618 5617 5616 5614 5613 5612 5612 5612 5611 5610 5610 5609 5607 5603 5600 5599 5597 5598 5599 5596 5593 5589 5587 5585 5584 5582 5580 5579
5618 5618 5618 5618 5618 5617 5616 5616 5615 5615 5614 5613 5613 5612 5612 5611 5610 5609 5608 5607 5606 5606 5606 5605 5605 5604 5602 5600 5598 5596 5593 5590 5589 5589 5587 5584 5582 5580 5580 5579 5577 5576 5575
5610 5609 5609 5609 5609 5609 5608 5607 5606 5606 5606 5606 5605 5605 5604 5603 5602 5602 5602 5601 5601 5601 5599 5599 5599 5597 5595 5594 5591 5589 5588 5587 5584 5582 5581 5579 5578 5576 5576 5575 5574 5572 5570
5601 5600 5600 5600 5600 5600 5599 5599 5598 5597 5598 5598 5598 5597 5596 5594 5594 5594 5593 5591 5591 5590 5589 5589 5589 5589 5587 5585 5582 5580 5578 5577 5575 5573 5575 5575 5574 5574 5573 5571 5569 5567 5565